Weather History for Perth, WE

Change the Weather History Date:

Wednesday, November 20, 2013

  Actual Average Record
Temperature  
Mean Temperature 68 °F -  
Max Temperature 82 °F 82 °F 91 °F (1998)
Min Temperature 55 °F 58 °F 46 °F (2007)
Cooling Degree Days 4    
Growing Degree Days 18 (Base 50)    
Moisture  
Dew Point 39 °F    
Average Humidity 33    
Maximum Humidity 54    
Minimum Humidity 13    
Precipitation  
Precipitation 0.00 in 0.02 in - ()
Sea Level Pressure  
Sea Level Pressure 29.83 in    
Wind  
Wind Speed 17 mph ()    
Max Wind Speed 24 mph    
Max Gust Speed 36 mph    
Visibility 19.0 miles    
Events      
Averages and records for this station are not official NWS values.
T = Trace of Precipitation, MM = Missing Value Source: Averaged Metar Reports

Daily Weather History Graph

Daily Weather History Graph

Search for Another Location

Airport:

Trip Planner

Search our weather history database for the weather conditions in past years. The results will help you decide how hot, cold, wet, or windy it might be!

Date:

Astronomy

Nov. 20, 2013 Rise Set
Actual Time 5:05 AM WST 6:57 PM WST
Civil Twilight 4:38 AM WST 7:24 PM WST
Nautical Twilight 4:06 AM WST 7:57 PM WST
Astronomical Twilight 3:31 AM WST 8:32 PM WST
Moon 9:11 PM WST (11/20) 7:02 AM WST (11/20)
Length of Visible Light 14h 46m
Length of Day
13h 51m
Waning Gibbous, 94% of the Moon is Illuminated
Nov 20
Waning Gibbous
Nov 26
Last Quarter
Dec 3
New
Dec 9
First Quarter
Dec 17
Full

Hourly Weather History & Observations

Time (WST) Temp. Dew Point Humidity Pressure Visibility Wind Dir Wind Speed Gust Speed Precip Events Conditions
12:00 AM 60 °F 37 °F 30% 29.94 in 19 mi ESE 15.0 mph - -   Partly Cloudy
12:00 AM 60.8 °F 37.4 °F 42% 29.92 in - ESE 15.0 mph 28.8 mph N/A   Clear
12:30 AM 59.0 °F 37.4 °F 45% 29.92 in - East 17.3 mph - N/A   Clear
1:00 AM 59.0 °F 37.4 °F 45% 29.89 in - ESE 19.6 mph - N/A   Clear
1:12 AM 57.2 °F 39.2 °F 51% 29.89 in - ESE 21.9 mph 33.4 mph N/A   Clear
1:30 AM 57.2 °F 39.2 °F 51% 29.89 in - ESE 17.3 mph - N/A   Clear
2:00 AM 57 °F 39 °F 40% 29.91 in - ESE 16.1 mph - -  
2:00 AM 57.2 °F 39.2 °F 51% 29.89 in - ESE 16.1 mph - N/A   Clear
2:26 AM 57.2 °F 39.2 °F 51% 29.89 in - ESE 17.3 mph 28.8 mph N/A   Clear
2:30 AM 57.2 °F 39.2 °F 51% 29.89 in - ESE 19.6 mph - N/A   Clear
2:52 AM 57.2 °F 39.2 °F 51% 29.89 in - East 20.7 mph 32.2 mph N/A   Clear
3:00 AM 57 °F 39 °F 39% 29.90 in 19 mi East 24.2 mph - -   Partly Cloudy
3:05 AM 57.2 °F 39.2 °F 51% 29.89 in - East 21.9 mph 33.4 mph N/A   Clear
3:30 AM 55.4 °F 39.2 °F 54% 29.89 in - East 19.6 mph - N/A   Clear
4:00 AM 55.4 °F 39.2 °F 54% 29.89 in - East 20.7 mph 32.2 mph N/A   Clear
4:30 AM 55.4 °F 39.2 °F 54% 29.89 in - East 23.0 mph 35.7 mph N/A   Clear
5:00 AM 56 °F 39 °F 42% 29.91 in - East 18.4 mph - -  
5:00 AM 55.4 °F 39.2 °F 54% 29.89 in - East 18.4 mph - N/A   Clear
5:10 AM 55.4 °F 39.2 °F 54% 29.89 in - East 20.7 mph 32.2 mph N/A   Clear
5:30 AM 55.4 °F 39.2 °F 54% 29.89 in - East 19.6 mph - N/A   Clear
6:00 AM 57 °F 39 °F 39% 29.91 in 19 mi East 21.9 mph - -   Partly Cloudy
6:00 AM 57.2 °F 39.2 °F 51% 29.89 in - East 21.9 mph - N/A   Clear
6:25 AM 59.0 °F 39.2 °F 48% 29.89 in - East 20.7 mph 32.2 mph N/A   Clear
6:30 AM 59.0 °F 39.2 °F 48% 29.89 in - East 21.9 mph - N/A   Clear
7:00 AM 59.0 °F 39.2 °F 48% 29.89 in - East 17.3 mph - N/A   Clear
7:05 AM 59.0 °F 39.2 °F 48% 29.89 in - East 17.3 mph 31.1 mph N/A   Clear
7:34 AM 60.8 °F 39.2 °F 45% 29.89 in - East 20.7 mph 32.2 mph N/A   Clear
8:00 AM 63 °F 40 °F 31% 29.91 in - East 15.0 mph - -  
8:00 AM 62.6 °F 39.2 °F 42% 29.89 in - East 15.0 mph 27.6 mph N/A   Clear
8:34 AM 66.2 °F 41.0 °F 40% 29.89 in - East 17.3 mph 28.8 mph N/A   Clear
8:46 AM 66.2 °F 39.2 °F 37% 29.89 in - East 18.4 mph - N/A   Clear
8:53 AM 66.2 °F 39.2 °F 37% 29.89 in - East 18.4 mph 29.9 mph N/A   Clear
9:00 AM 68 °F 40 °F 25% 29.91 in 19 mi East 23.0 mph - -   Partly Cloudy
9:00 AM 68.0 °F 41.0 °F 37% 29.89 in - East 23.0 mph - N/A   Clear
9:22 AM 66.2 °F 39.2 °F 37% 29.89 in - East 17.3 mph 31.1 mph N/A   Clear
9:32 AM 66.2 °F 41.0 °F 40% 29.89 in - ENE 20.7 mph 32.2 mph N/A   Clear
10:00 AM 69.8 °F 39.2 °F 33% 29.89 in - East 23.0 mph - N/A   Clear
10:30 AM 71.6 °F 39.2 °F 31% 29.86 in - East 21.9 mph - N/A   Clear
11:00 AM 73 °F 39 °F 19% 29.87 in - East 20.7 mph - -  
11:00 AM 73.4 °F 39.2 °F 29% 29.86 in - East 20.7 mph - N/A   Clear
11:30 AM 77.0 °F 41.0 °F 28% 29.83 in - East 21.9 mph - N/A   Clear
11:52 AM 75.2 °F 39.2 °F 27% 29.83 in - East 18.4 mph 29.9 mph N/A   Clear
12:00 PM 76 °F 40 °F 17% 29.84 in 19 mi East 19.6 mph - -   Partly Cloudy
12:00 PM 77.0 °F 39.2 °F 26% 29.83 in - East 19.6 mph - N/A   Clear
12:14 PM 77.0 °F 39.2 °F 26% 29.83 in - East 19.6 mph 31.1 mph N/A   Clear
12:30 PM 77.0 °F 41.0 °F 28% 29.80 in - East 19.6 mph - N/A   Clear
12:51 PM 78.8 °F 39.2 °F 24% 29.80 in - East 20.7 mph 32.2 mph N/A   Clear
1:00 PM 77.0 °F 41.0 °F 28% 29.80 in - East 20.7 mph 32.2 mph N/A   Clear
1:25 PM 78.8 °F 39.2 °F 24% 29.77 in - ESE 23.0 mph - N/A   Clear
1:30 PM 80.6 °F 39.2 °F 23% 29.77 in - ESE 21.9 mph - N/A   Clear
2:00 PM 81 °F 40 °F 14% 29.78 in - ESE 18.4 mph - -  
2:00 PM 80.6 °F 41.0 °F 24% 29.77 in - ESE 18.4 mph - N/A   Clear
2:30 PM 80.6 °F 39.2 °F 23% 29.74 in - East 15.0 mph - N/A   Clear
2:48 PM 80.6 °F 39.2 °F 23% 29.74 in - ENE 17.3 mph 31.1 mph N/A   Clear
3:00 PM 81 °F 38 °F 13% 29.75 in 19 mi East 19.6 mph - -   Partly Cloudy
3:00 PM 80.6 °F 39.2 °F 23% 29.74 in - East 19.6 mph - N/A   Clear
3:24 PM 80.6 °F 39.2 °F 23% 29.74 in - ESE 17.3 mph 29.9 mph N/A   Clear
3:30 PM 80.6 °F 39.2 °F 23% 29.74 in - ESE 18.4 mph 29.9 mph N/A   Clear
4:00 PM 82.4 °F 39.2 °F 21% 29.74 in - ESE 18.4 mph - N/A   Clear
4:30 PM 82.4 °F 41.0 °F 23% 29.71 in - ESE 15.0 mph - N/A   Clear
5:00 PM 81 °F 39 °F 13% 29.73 in - East 18.4 mph - -  
5:00 PM 80.6 °F 39.2 °F 23% 29.71 in - East 18.4 mph - N/A   Clear
5:30 PM 80.6 °F 41.0 °F 24% 29.71 in - East 17.3 mph - N/A   Clear
6:00 PM 81 °F 40 °F 14% 29.74 in 19 mi East 17.3 mph - -   Partly Cloudy
6:00 PM 80.6 °F 41.0 °F 24% 29.74 in - East 17.3 mph - N/A   Clear
6:30 PM 78.8 °F 41.0 °F 26% 29.74 in - East 12.7 mph - N/A   Clear
7:00 PM 77.0 °F 41.0 °F 28% 29.74 in - ESE 10.4 mph - N/A   Clear
7:30 PM 75.2 °F 41.0 °F 29% 29.74 in - ESE 11.5 mph - N/A   Clear
8:00 PM 74 °F 40 °F 19% 29.76 in - ESE 11.5 mph - -  
8:00 PM 73.4 °F 39.2 °F 29% 29.74 in - ESE 11.5 mph - N/A   Clear
8:30 PM 73.4 °F 37.4 °F 27% 29.77 in - ESE 13.8 mph - N/A   Clear
9:00 PM 73 °F 36 °F 16% 29.78 in 19 mi ESE 16.1 mph - -   Partly Cloudy
9:00 PM 73.4 °F 35.6 °F 25% 29.77 in - ESE 16.1 mph - N/A   Clear
9:30 PM 73.4 °F 35.6 °F 25% 29.77 in - East 16.1 mph - N/A   Clear
10:00 PM 71.6 °F 35.6 °F 27% 29.77 in - ESE 16.1 mph - N/A   Clear
10:30 PM 71.6 °F 35.6 °F 27% 29.77 in - ESE 15.0 mph - N/A   Clear
11:00 PM 71 °F 35 °F 16% 29.77 in - East 15.0 mph - -  
11:00 PM 71.6 °F 35.6 °F 27% 29.77 in - East 15.0 mph - N/A   Clear
11:30 PM 69.8 °F 33.8 °F 27% 29.77 in - East 17.3 mph - N/A   Clear